QPF
0.31 0.25 0.22 0.21 0.15 0.11 0.08 0.06 0.05 0.05 0.04 0.05 0.05 0.06 0.06 0.07 0.06 0.06 0.07 0.07 0.08 0.09 0.12 0.18 0.26 0.31 0.30 0.24 0.18 0.16 0.12 0.09 0.07 0.06 0.05 0.06 0.07 0.09 0.08 0.06 0.07 0.06 0.04
0.21 0.20 0.17 0.15 0.12 0.08 0.07 0.06 0.06 0.05 0.05 0.05 0.06 0.06 0.07 0.08 0.08 0.09 0.09 0.08 0.09 0.11 0.15 0.23 0.25 0.23 0.25 0.23 0.16 0.14 0.10 0.09 0.07 0.05 0.05 0.06 0.05 0.08 0.08 0.08 0.11 0.08 0.03
0.12 0.12 0.11 0.09 0.08 0.07 0.07 0.07 0.06 0.05 0.05 0.07 0.07 0.07 0.08 0.08 0.08 0.08 0.10 0.10 0.11 0.13 0.17 0.25 0.23 0.24 0.25 0.19 0.11 0.09 0.08 0.08 0.07 0.06 0.08 0.09 0.07 0.07 0.07 0.07 0.08 0.07 0.03
0.08 0.11 0.13 0.10 0.08 0.09 0.09 0.08 0.06 0.05 0.06 0.07 0.08 0.08 0.08 0.09 0.09 0.08 0.09 0.11 0.14 0.16 0.16 0.17 0.17 0.17 0.15 0.12 0.08 0.06 0.06 0.06 0.08 0.09 0.12 0.18 0.12 0.07 0.06 0.05 0.06 0.04 0.03
0.08 0.09 0.11 0.11 0.11 0.12 0.09 0.07 0.05 0.05 0.06 0.07 0.07 0.07 0.08 0.09 0.09 0.09 0.08 0.11 0.15 0.23 0.21 0.14 0.12 0.10 0.10 0.10 0.08 0.07 0.07 0.08 0.11 0.12 0.14 0.15 0.11 0.08 0.06 0.04 0.04 0.03 0.02
0.06 0.07 0.08 0.10 0.11 0.10 0.08 0.06 0.05 0.05 0.05 0.07 0.09 0.10 0.11 0.11 0.10 0.09 0.09 0.10 0.12 0.19 0.21 0.16 0.13 0.11 0.11 0.11 0.10 0.09 0.09 0.11 0.14 0.13 0.13 0.15 0.12 0.09 0.07 0.04 0.04 0.03 0.03
0.05 0.06 0.05 0.06 0.08 0.09 0.07 0.08 0.06 0.05 0.07 0.10 0.11 0.15 0.17 0.10 0.10 0.10 0.10 0.11 0.10 0.11 0.13 0.12 0.11 0.10 0.09 0.10 0.10 0.08 0.12 0.13 0.13 0.13 0.14 0.16 0.14 0.10 0.07 0.04 0.04 0.03 0.04
0.05 0.05 0.04 0.03 0.06 0.07 0.08 0.11 0.09 0.10 0.11 0.12 0.15 0.19 0.19 0.11 0.10 0.10 0.11 0.11 0.10 0.11 0.14 0.12 0.10 0.08 0.08 0.08 0.08 0.08 0.11 0.13 0.11 0.09 0.12 0.15 0.12 0.11 0.09 0.06 0.04 0.04 0.05
0.04 0.05 0.06 0.06 0.10 0.13 0.15 0.14 0.13 0.13 0.12 0.14 0.16 0.16 0.18 0.15 0.11 0.11 0.11 0.12 0.11 0.14 0.16 0.14 0.12 0.08 0.09 0.10 0.12 0.10 0.09 0.10 0.09 0.08 0.07 0.09 0.10 0.11 0.09 0.07 0.05 0.05 0.05
0.03 0.06 0.10 0.11 0.13 0.15 0.16 0.17 0.16 0.13 0.12 0.13 0.13 0.13 0.12 0.15 0.16 0.15 0.14 0.14 0.16 0.18 0.15 0.13 0.11 0.08 0.09 0.13 0.14 0.11 0.11 0.10 0.08 0.07 0.07 0.06 0.08 0.07 0.07 0.06 0.05 0.05 0.04
0.04 0.05 0.08 0.10 0.09 0.11 0.13 0.13 0.16 0.14 0.12 0.13 0.14 0.14 0.14 0.15 0.16 0.17 0.18 0.18 0.21 0.22 0.15 0.12 0.11 0.09 0.09 0.12 0.12 0.12 0.13 0.10 0.09 0.10 0.11 0.07 0.06 0.07 0.07 0.06 0.05 0.04 0.04
0.05 0.06 0.07 0.10 0.09 0.08 0.07 0.08 0.12 0.13 0.14 0.14 0.16 0.16 0.16 0.15 0.15 0.15 0.17 0.22 0.25 0.23 0.17 0.15 0.13 0.10 0.10 0.10 0.09 0.09 0.08 0.08 0.09 0.12 0.14 0.11 0.07 0.08 0.07 0.06 0.05 0.05 0.04
0.05 0.05 0.06 0.08 0.08 0.06 0.07 0.08 0.10 0.13 0.15 0.18 0.20 0.18 0.17 0.15 0.14 0.15 0.22 0.29 0.27 0.23 0.21 0.18 0.13 0.10 0.08 0.09 0.11 0.08 0.06 0.07 0.12 0.12 0.14 0.15 0.06 0.06 0.05 0.04 0.03 0.04 0.05
0.03 0.03 0.04 0.05 0.05 0.05 0.06 0.07 0.08 0.11 0.15 0.22 0.24 0.21 0.17 0.18 0.16 0.17 0.24 0.26 0.23 0.20 0.17 0.14 0.12 0.09 0.07 0.11 0.15 0.08 0.06 0.09 0.10 0.08 0.08 0.08 0.06 0.06 0.07 0.06 0.05 0.05 0.06
0.02 0.03 0.03 0.04 0.05 0.06 0.06 0.06 0.05 0.10 0.19 0.24 0.24 0.20 0.15 0.17 0.19 0.22 0.24 0.23 0.19 0.16 0.13 0.12 0.12 0.10 0.09 0.08 0.08 0.08 0.09 0.10 0.07 0.09 0.09 0.06 0.05 0.06 0.07 0.08 0.09 0.10 0.10
0.02 0.02 0.02 0.02 0.03 0.04 0.04 0.05 0.06 0.12 0.18 0.19 0.21 0.17 0.14 0.13 0.15 0.21 0.26 0.24 0.18 0.13 0.11 0.10 0.11 0.10 0.08 0.08 0.08 0.08 0.09 0.08 0.06 0.07 0.09 0.09 0.08 0.08 0.07 0.07 0.11 0.14 0.14
0.01 0.02 0.02 0.02 0.02 0.02 0.02 0.04 0.07 0.11 0.16 0.19 0.19 0.15 0.13 0.12 0.15 0.17 0.20 0.18 0.15 0.11 0.08 0.08 0.08 0.08 0.08 0.08 0.09 0.09 0.09 0.08 0.07 0.06 0.07 0.09 0.11 0.10 0.06 0.06 0.09 0.12 0.11
0.01 0.01 0.01 0.02 0.02 0.02 0.03 0.05 0.06 0.08 0.10 0.14 0.16 0.15 0.17 0.16 0.16 0.16 0.14 0.14 0.15 0.14 0.09 0.08 0.08 0.08 0.09 0.10 0.11 0.09 0.07 0.07 0.06 0.06 0.08 0.10 0.10 0.10 0.09 0.08 0.09 0.10 0.10
0.01 0.01 0.02 0.02 0.03 0.04 0.03 0.04 0.05 0.06 0.08 0.10 0.13 0.14 0.13 0.11 0.09 0.09 0.10 0.12 0.13 0.14 0.11 0.08 0.07 0.10 0.12 0.13 0.14 0.09 0.06 0.06 0.08 0.08 0.08 0.07 0.09 0.10 0.09 0.09 0.08 0.09 0.08
0.00 0.01 0.02 0.02 0.04 0.04 0.04 0.04 0.05 0.06 0.06 0.08 0.09 0.08 0.08 0.08 0.06 0.06 0.08 0.10 0.12 0.15 0.14 0.10 0.10 0.12 0.13 0.12 0.10 0.10 0.09 0.09 0.10 0.09 0.07 0.04 0.06 0.06 0.07 0.08 0.10 0.08 0.06
0.01 0.01 0.01 0.02 0.04 0.04 0.04 0.04 0.04 0.04 0.04 0.05 0.05 0.05 0.04 0.04 0.05 0.06 0.08 0.10 0.11 0.12 0.11 0.08 0.09 0.10 0.11 0.10 0.12 0.15 0.16 0.15 0.11 0.09 0.07 0.07 0.09 0.07 0.06 0.08 0.11 0.12 0.08
0.01 0.01 0.01 0.02 0.03 0.03 0.04 0.03 0.04 0.04 0.03 0.03 0.04 0.03 0.02 0.02 0.02 0.04 0.05 0.05 0.07 0.09 0.10 0.10 0.09 0.08 0.10 0.11 0.13 0.16 0.16 0.16 0.13 0.09 0.08 0.09 0.08 0.09 0.10 0.11 0.12 0.12 0.09
0.01 0.01 0.01 0.02 0.03 0.03 0.03 0.02 0.03 0.04 0.04 0.05 0.04 0.04 0.03 0.02 0.01 0.02 0.03 0.03 0.04 0.05 0.07 0.09 0.08 0.09 0.10 0.12 0.11 0.13 0.16 0.16 0.14 0.09 0.05 0.05 0.06 0.09 0.10 0.11 0.12 0.13 0.11
0.01 0.01 0.01 0.01 0.02 0.03 0.02 0.02 0.04 0.05 0.05 0.05 0.05 0.04 0.03 0.03 0.02 0.02 0.03 0.04 0.04 0.04 0.06 0.06 0.06 0.08 0.08 0.11 0.12 0.10 0.10 0.12 0.13 0.09 0.06 0.06 0.05 0.08 0.09 0.09 0.11 0.13 0.12
0.00 0.00 0.01 0.01 0.02 0.02 0.02 0.03 0.05 0.05 0.05 0.04 0.04 0.04 0.04 0.04 0.03 0.03 0.02 0.03 0.03 0.04 0.04 0.05 0.06 0.05 0.05 0.06 0.08 0.08 0.09 0.09 0.09 0.10 0.10 0.07 0.05 0.06 0.08 0.08 0.08 0.10 0.10
0.00 0.00 0.00 0.01 0.02 0.01 0.01 0.02 0.04 0.04 0.03 0.03 0.04 0.04 0.04 0.04 0.04 0.03 0.02 0.03 0.04 0.05 0.04 0.04 0.05 0.05 0.05 0.05 0.06 0.06 0.07 0.07 0.08 0.09 0.10 0.08 0.07 0.05 0.06 0.07 0.08 0.10 0.09
MSLP
1001.56 1000.25 998.93 997.73 996.74 996.05 995.69 995.69 996.03 996.71 997.67 998.87 1000.23 1001.67 1003.12 1004.50 1005.75 1006.83 1007.74 1008.50 1009.13 1009.68 1010.19 1010.68 1011.17 1011.64 1012.07 1012.45 1012.77 1013.03 1013.23 1013.42 1013.61 1013.84 1014.11 1014.43 1014.79 1015.14 1015.47 1015.76 1015.99 1016.16 1016.30
1001.95 1000.55 999.18 997.97 997.03 996.41 996.14 996.23 996.66 997.38 998.36 999.54 1000.86 1002.24 1003.61 1004.92 1006.12 1007.17 1008.06 1008.81 1009.45 1010.02 1010.54 1011.04 1011.52 1011.97 1012.38 1012.74 1013.03 1013.27 1013.48 1013.67 1013.89 1014.14 1014.44 1014.78 1015.15 1015.50 1015.83 1016.11 1016.32 1016.49 1016.62
1002.17 1000.74 999.37 998.20 997.34 996.84 996.70 996.91 997.44 998.23 999.23 1000.39 1001.63 1002.91 1004.18 1005.38 1006.48 1007.46 1008.31 1009.05 1009.69 1010.27 1010.81 1011.31 1011.79 1012.23 1012.62 1012.95 1013.23 1013.46 1013.67 1013.87 1014.11 1014.38 1014.70 1015.06 1015.43 1015.79 1016.12 1016.39 1016.61 1016.79 1016.93
1002.25 1000.81 999.48 998.39 997.63 997.26 997.27 997.62 998.26 999.12 1000.14 1001.26 1002.43 1003.61 1004.75 1005.83 1006.83 1007.73 1008.53 1009.25 1009.89 1010.49 1011.04 1011.56 1012.04 1012.47 1012.85 1013.16 1013.42 1013.64 1013.84 1014.06 1014.30 1014.60 1014.93 1015.30 1015.68 1016.04 1016.36 1016.64 1016.87 1017.07 1017.24
1002.27 1000.85 999.57 998.56 997.91 997.67 997.80 998.27 999.01 999.93 1000.98 1002.08 1003.19 1004.27 1005.31 1006.28 1007.19 1008.02 1008.78 1009.48 1010.13 1010.75 1011.32 1011.86 1012.34 1012.76 1013.12 1013.41 1013.64 1013.84 1014.04 1014.26 1014.52 1014.83 1015.18 1015.55 1015.92 1016.28 1016.60 1016.87 1017.12 1017.34 1017.55
1002.35 1000.98 999.74 998.80 998.24 998.09 998.32 998.88 999.68 1000.65 1001.71 1002.79 1003.86 1004.88 1005.85 1006.75 1007.59 1008.38 1009.11 1009.81 1010.47 1011.11 1011.70 1012.24 1012.72 1013.12 1013.45 1013.71 1013.92 1014.10 1014.29 1014.51 1014.78 1015.10 1015.46 1015.84 1016.21 1016.55 1016.86 1017.13 1017.37 1017.60 1017.83
1002.62 1001.29 1000.12 999.24 998.73 998.63 998.90 999.49 1000.32 1001.31 1002.37 1003.44 1004.49 1005.48 1006.41 1007.28 1008.09 1008.86 1009.58 1010.28 1010.96 1011.59 1012.19 1012.72 1013.18 1013.55 1013.84 1014.07 1014.24 1014.40 1014.59 1014.81 1015.09 1015.43 1015.80 1016.18 1016.55 1016.87 1017.16 1017.40 1017.62 1017.84 1018.07
1003.15 1001.91 1000.81 999.98 999.50 999.40 999.66 1000.23 1001.04 1002.00 1003.05 1004.11 1005.14 1006.13 1007.05 1007.91 1008.71 1009.48 1010.20 1010.90 1011.56 1012.19 1012.76 1013.26 1013.68 1014.00 1014.24 1014.42 1014.56 1014.71 1014.88 1015.12 1015.42 1015.78 1016.18 1016.57 1016.93 1017.25 1017.50 1017.71 1017.89 1018.07 1018.27
1003.98 1002.87 1001.87 1001.09 1000.63 1000.50 1000.71 1001.21 1001.95 1002.85 1003.84 1004.87 1005.89 1006.87 1007.79 1008.66 1009.46 1010.22 1010.94 1011.61 1012.25 1012.83 1013.35 1013.79 1014.15 1014.41 1014.59 1014.71 1014.82 1014.95 1015.13 1015.39 1015.72 1016.12 1016.55 1016.97 1017.35 1017.65 1017.88 1018.04 1018.17 1018.29 1018.43
1005.08 1004.15 1003.28 1002.59 1002.14 1001.97 1002.10 1002.50 1003.13 1003.93 1004.84 1005.81 1006.79 1007.74 1008.65 1009.51 1010.30 1011.03 1011.72 1012.35 1012.92 1013.44 1013.88 1014.25 1014.52 1014.71 1014.82 1014.90 1014.98 1015.10 1015.29 1015.57 1015.95 1016.40 1016.88 1017.34 1017.74 1018.05 1018.26 1018.39 1018.46 1018.51 1018.59
1006.36 1005.66 1004.97 1004.38 1003.97 1003.78 1003.82 1004.10 1004.59 1005.26 1006.05 1006.92 1007.82 1008.72 1009.59 1010.40 1011.15 1011.84 1012.46 1013.02 1013.51 1013.94 1014.29 1014.57 1014.76 1014.87 1014.93 1014.97 1015.03 1015.15 1015.35 1015.67 1016.10 1016.60 1017.14 1017.65 1018.09 1018.42 1018.63 1018.74 1018.77 1018.77 1018.78
1007.69 1007.26 1006.79 1006.34 1006.00 1005.80 1005.77 1005.93 1006.28 1006.79 1007.43 1008.17 1008.96 1009.76 1010.55 1011.28 1011.96 1012.57 1013.10 1013.57 1013.96 1014.30 1014.56 1014.75 1014.87 1014.93 1014.95 1014.96 1015.01 1015.13 1015.36 1015.71 1016.18 1016.73 1017.32 1017.88 1018.37 1018.74 1018.97 1019.08 1019.10 1019.06 1019.03
1008.96 1008.80 1008.56 1008.29 1008.04 1007.86 1007.79 1007.85 1008.06 1008.41 1008.89 1009.47 1010.11 1010.78 1011.45 1012.07 1012.64 1013.15 1013.58 1013.95 1014.26 1014.51 1014.70 1014.83 1014.90 1014.93 1014.93 1014.94 1014.99 1015.13 1015.37 1015.74 1016.23 1016.81 1017.43 1018.03 1018.56 1018.98 1019.25 1019.39 1019.43 1019.39 1019.35
1010.03 1010.14 1010.13 1010.04 1009.91 1009.78 1009.69 1009.68 1009.77 1009.98 1010.30 1010.71 1011.19 1011.70 1012.22 1012.71 1013.16 1013.56 1013.90 1014.18 1014.42 1014.61 1014.75 1014.86 1014.92 1014.95 1014.96 1014.99 1015.06 1015.20 1015.45 1015.81 1016.29 1016.87 1017.49 1018.11 1018.67 1019.12 1019.45 1019.64 1019.71 1019.71 1019.68
1010.82 1011.15 1011.34 1011.42 1011.42 1011.36 1011.29 1011.25 1011.27 1011.36 1011.54 1011.79 1012.11 1012.46 1012.82 1013.18 1013.51 1013.81 1014.07 1014.29 1014.49 1014.65 1014.79 1014.91 1014.99 1015.06 1015.11 1015.17 1015.26 1015.41 1015.64 1015.98 1016.42 1016.95 1017.54 1018.13 1018.68 1019.16 1019.53 1019.77 1019.91 1019.97 1019.99
1011.27 1011.75 1012.10 1012.32 1012.44 1012.47 1012.46 1012.43 1012.42 1012.44 1012.51 1012.63 1012.81 1013.02 1013.25 1013.48 1013.71 1013.93 1014.14 1014.34 1014.52 1014.70 1014.87 1015.03 1015.17 1015.29 1015.40 1015.50 1015.62 1015.77 1015.98 1016.27 1016.63 1017.08 1017.58 1018.10 1018.61 1019.07 1019.46 1019.75 1019.96 1020.09 1020.16
1011.41 1011.96 1012.41 1012.73 1012.95 1013.09 1013.15 1013.17 1013.17 1013.17 1013.19 1013.23 1013.30 1013.40 1013.52 1013.67 1013.83 1014.00 1014.19 1014.38 1014.58 1014.80 1015.01 1015.23 1015.43 1015.62 1015.79 1015.95 1016.09 1016.24 1016.42 1016.64 1016.91 1017.24 1017.62 1018.03 1018.45 1018.86 1019.23 1019.55 1019.80 1020.00 1020.14
1011.29 1011.85 1012.33 1012.72 1013.02 1013.25 1013.41 1013.51 1013.57 1013.59 1013.60 1013.61 1013.62 1013.66 1013.71 1013.80 1013.92 1014.07 1014.26 1014.47 1014.71 1014.96 1015.23 1015.50 1015.77 1016.02 1016.24 1016.43 1016.60 1016.75 1016.90 1017.05 1017.22 1017.41 1017.65 1017.92 1018.22 1018.54 1018.85 1019.16 1019.44 1019.68 1019.88
1010.99 1011.51 1011.98 1012.39 1012.76 1013.07 1013.33 1013.53 1013.68 1013.77 1013.81 1013.83 1013.83 1013.84 1013.87 1013.94 1014.05 1014.21 1014.41 1014.64 1014.91 1015.20 1015.51 1015.82 1016.12 1016.40 1016.66 1016.89 1017.08 1017.23 1017.35 1017.44 1017.51 1017.59 1017.68 1017.80 1017.96 1018.15 1018.38 1018.63 1018.89 1019.15 1019.39
1010.63 1011.08 1011.51 1011.92 1012.32 1012.71 1013.06 1013.37 1013.61 1013.79 1013.91 1013.96 1013.99 1014.01 1014.04 1014.12 1014.24 1014.41 1014.64 1014.90 1015.19 1015.50 1015.82 1016.13 1016.44 1016.73 1017.00 1017.24 1017.45 1017.61 1017.71 1017.77 1017.78 1017.75 1017.72 1017.69 1017.70 1017.75 1017.86 1018.02 1018.23 1018.47 1018.72
1010.29 1010.67 1011.05 1011.45 1011.86 1012.30 1012.73 1013.13 1013.48 1013.75 1013.94 1014.06 1014.13 1014.18 1014.24 1014.34 1014.49 1014.69 1014.94 1015.23 1015.53 1015.83 1016.13 1016.42 1016.70 1016.97 1017.23 1017.47 1017.68 1017.85 1017.96 1018.01 1017.99 1017.91 1017.78 1017.63 1017.50 1017.41 1017.38 1017.42 1017.55 1017.73 1017.95
1010.03 1010.36 1010.70 1011.07 1011.49 1011.95 1012.44 1012.92 1013.35 1013.70 1013.96 1014.14 1014.26 1014.35 1014.44 1014.57 1014.76 1014.99 1015.27 1015.57 1015.88 1016.16 1016.43 1016.67 1016.89 1017.11 1017.34 1017.56 1017.77 1017.96 1018.10 1018.17 1018.16 1018.05 1017.87 1017.64 1017.39 1017.17 1017.00 1016.91 1016.91 1017.01 1017.17
1009.84 1010.16 1010.47 1010.83 1011.24 1011.72 1012.24 1012.76 1013.25 1013.65 1013.96 1014.19 1014.34 1014.47 1014.60 1014.76 1014.98 1015.26 1015.56 1015.88 1016.19 1016.46 1016.68 1016.87 1017.03 1017.19 1017.36 1017.55 1017.76 1017.97 1018.15 1018.26 1018.28 1018.20 1018.00 1017.73 1017.40 1017.07 1016.77 1016.54 1016.42 1016.39 1016.46
1009.70 1010.03 1010.35 1010.70 1011.11 1011.59 1012.11 1012.66 1013.16 1013.59 1013.93 1014.17 1014.35 1014.50 1014.65 1014.84 1015.10 1015.41 1015.75 1016.10 1016.42 1016.68 1016.87 1017.02 1017.12 1017.22 1017.33 1017.49 1017.69 1017.91 1018.12 1018.29 1018.37 1018.33 1018.16 1017.87 1017.51 1017.09 1016.69 1016.33 1016.07 1015.92 1015.88
1009.51 1009.89 1010.23 1010.59 1011.00 1011.48 1012.00 1012.54 1013.05 1013.48 1013.82 1014.06 1014.24 1014.39 1014.55 1014.77 1015.05 1015.40 1015.78 1016.17 1016.51 1016.79 1016.98 1017.10 1017.16 1017.21 1017.28 1017.40 1017.58 1017.81 1018.05 1018.26 1018.40 1018.42 1018.30 1018.03 1017.65 1017.19 1016.71 1016.25 1015.87 1015.59 1015.43
1009.19 1009.63 1010.02 1010.40 1010.83 1011.31 1011.83 1012.36 1012.86 1013.28 1013.60 1013.83 1014.00 1014.14 1014.30 1014.52 1014.82 1015.20 1015.62 1016.06 1016.45 1016.76 1016.98 1017.10 1017.15 1017.17 1017.21 1017.30 1017.45 1017.67 1017.92 1018.17 1018.35 1018.43 1018.36 1018.14 1017.78 1017.31 1016.79 1016.25 1015.77 1015.38 1015.11
Thickness
5787 5786 5784 5783 5782 5781 5781 5781 5781 5781 5781 5781 5781 5781 5781 5780 5780 5780 5779 5779 5779 5779 5778 5778 5776 5775 5773 5771 5769 5768 5766 5765 5764 5763 5761 5760 5759 5758 5757 5757 5755 5754 5753
5789 5786 5783 5782 5781 5781 5781 5780 5780 5780 5780 5780 5780 5781 5780 5780 5779 5779 5778 5778 5778 5778 5778 5777 5775 5774 5771 5769 5768 5767 5766 5764 5763 5762 5760 5758 5757 5756 5756 5755 5754 5752 5751
5790 5786 5783 5781 5781 5781 5780 5780 5779 5779 5779 5779 5779 5779 5779 5778 5778 5778 5777 5777 5777 5777 5776 5775 5774 5773 5770 5768 5767 5766 5765 5764 5762 5760 5759 5758 5756 5755 5754 5753 5752 5751 5750
5791 5787 5783 5781 5781 5781 5780 5779 5779 5779 5779 5778 5778 5778 5779 5778 5777 5777 5777 5777 5776 5776 5774 5773 5773 5772 5769 5767 5766 5766 5764 5763 5761 5760 5759 5757 5755 5753 5752 5751 5750 5749 5748
5790 5786 5783 5782 5782 5781 5780 5779 5779 5778 5778 5778 5778 5778 5778 5778 5777 5776 5776 5776 5774 5774 5773 5772 5771 5770 5768 5767 5766 5765 5764 5762 5761 5760 5759 5757 5755 5753 5751 5750 5749 5748 5747
5791 5788 5784 5783 5783 5781 5780 5779 5778 5778 5778 5778 5778 5778 5777 5777 5777 5776 5775 5774 5774 5773 5772 5771 5770 5769 5767 5766 5765 5765 5763 5763 5762 5761 5759 5757 5754 5752 5751 5750 5749 5748 5747
5792 5789 5786 5784 5783 5782 5780 5779 5778 5778 5778 5778 5778 5778 5777 5777 5776 5776 5775 5774 5773 5772 5772 5770 5769 5767 5766 5765 5765 5764 5763 5762 5761 5761 5759 5756 5754 5752 5751 5749 5748 5747 5746
5793 5790 5787 5784 5783 5782 5780 5779 5778 5778 5778 5778 5778 5777 5777 5777 5776 5776 5775 5774 5773 5772 5770 5769 5768 5766 5766 5765 5765 5764 5763 5762 5763 5761 5758 5755 5753 5752 5750 5749 5748 5747 5746
5795 5792 5789 5786 5784 5782 5781 5780 5779 5778 5778 5778 5778 5777 5777 5777 5777 5776 5775 5774 5772 5771 5770 5768 5767 5766 5765 5765 5764 5764 5763 5763 5762 5761 5758 5754 5752 5751 5750 5749 5748 5747 5746
5794 5793 5791 5789 5787 5785 5782 5781 5780 5779 5778 5778 5778 5778 5778 5778 5778 5777 5776 5774 5773 5771 5769 5768 5767 5765 5765 5764 5764 5764 5763 5762 5762 5760 5757 5754 5752 5751 5750 5749 5748 5747 5746
5791 5792 5792 5790 5789 5788 5786 5783 5781 5780 5779 5779 5779 5779 5779 5779 5779 5778 5777 5776 5774 5772 5770 5768 5766 5765 5764 5764 5763 5763 5762 5762 5763 5760 5756 5754 5752 5750 5749 5749 5748 5747 5746
5786 5789 5791 5789 5789 5788 5788 5785 5783 5781 5780 5780 5780 5780 5780 5781 5781 5780 5777 5776 5775 5772 5770 5768 5766 5765 5764 5764 5763 5762 5761 5762 5761 5758 5754 5752 5752 5750 5749 5749 5748 5747 5745
5788 5789 5790 5789 5788 5787 5786 5785 5783 5782 5781 5781 5781 5781 5781 5781 5781 5780 5778 5776 5775 5773 5771 5768 5766 5766 5765 5765 5763 5762 5762 5762 5759 5757 5754 5753 5752 5751 5750 5749 5748 5747 5745
5790 5790 5790 5789 5787 5785 5785 5784 5784 5783 5782 5782 5782 5782 5782 5781 5780 5780 5779 5777 5775 5774 5772 5770 5768 5766 5765 5764 5763 5762 5762 5761 5758 5755 5753 5752 5751 5750 5749 5749 5747 5746 5744
5790 5790 5790 5790 5786 5785 5783 5783 5784 5783 5783 5783 5783 5783 5782 5781 5780 5779 5777 5776 5775 5773 5771 5769 5767 5765 5763 5763 5762 5761 5760 5759 5757 5755 5751 5750 5750 5748 5748 5747 5746 5745 5744
5793 5792 5792 5790 5787 5785 5783 5782 5783 5783 5782 5782 5782 5781 5781 5780 5779 5778 5776 5776 5774 5772 5771 5769 5767 5765 5763 5762 5760 5759 5759 5758 5756 5753 5750 5749 5748 5747 5746 5746 5745 5744 5743
5796 5794 5792 5791 5789 5786 5784 5783 5784 5783 5782 5781 5780 5779 5779 5780 5778 5777 5775 5774 5773 5772 5771 5768 5766 5764 5762 5761 5759 5758 5758 5757 5755 5753 5751 5748 5746 5745 5745 5744 5744 5742 5741
5799 5795 5795 5795 5790 5787 5785 5784 5784 5783 5783 5781 5780 5779 5778 5778 5777 5776 5775 5773 5772 5771 5770 5767 5765 5762 5761 5759 5757 5757 5756 5755 5753 5752 5750 5749 5746 5745 5744 5743 5742 5741 5739
5802 5798 5794 5793 5790 5788 5786 5785 5783 5783 5782 5781 5780 5779 5777 5777 5777 5776 5774 5772 5772 5770 5769 5767 5764 5761 5759 5757 5755 5755 5755 5753 5752 5751 5750 5748 5746 5745 5744 5742 5741 5739 5738
5805 5800 5796 5794 5791 5789 5788 5785 5784 5783 5782 5781 5779 5778 5776 5775 5775 5775 5774 5772 5771 5769 5766 5764 5762 5761 5759 5757 5756 5754 5753 5752 5751 5750 5749 5748 5746 5745 5744 5742 5739 5737 5736
5806 5801 5797 5794 5791 5790 5787 5784 5782 5780 5781 5780 5779 5777 5776 5775 5774 5774 5773 5771 5770 5768 5765 5764 5762 5759 5758 5757 5752 5748 5748 5750 5749 5748 5747 5746 5745 5744 5743 5741 5738 5737 5735
5807 5803 5799 5795 5794 5792 5789 5787 5785 5783 5782 5781 5779 5777 5776 5775 5774 5774 5771 5770 5769 5767 5764 5763 5761 5758 5757 5757 5750 5743 5738 5739 5743 5747 5745 5743 5743 5742 5741 5738 5736 5735 5733
5810 5806 5803 5799 5796 5794 5793 5791 5788 5785 5782 5779 5777 5777 5777 5776 5774 5772 5770 5770 5768 5767 5764 5762 5761 5758 5754 5755 5754 5747 5738 5733 5735 5740 5741 5741 5740 5739 5738 5737 5735 5732 5730
5815 5812 5807 5802 5799 5797 5795 5791 5787 5782 5778 5777 5777 5777 5777 5776 5774 5773 5771 5770 5768 5767 5764 5763 5763 5760 5756 5752 5753 5753 5750 5745 5736 5730 5734 5737 5737 5735 5735 5735 5732 5730 5727
5821 5816 5810 5805 5801 5798 5796 5793 5789 5785 5783 5782 5780 5778 5776 5776 5775 5773 5771 5770 5768 5766 5765 5764 5762 5760 5758 5755 5752 5751 5749 5747 5744 5734 5726 5728 5730 5732 5732 5731 5729 5727 5725
5825 5820 5814 5807 5802 5799 5797 5795 5790 5786 5784 5781 5778 5776 5775 5773 5773 5773 5771 5769 5768 5766 5765 5763 5762 5760 5757 5755 5754 5752 5749 5745 5741 5737 5728 5724 5723 5725 5728 5728 5726 5725 5722